Hourly Weather Constanta

Today, 7 May, Friday

Time Temperature Precipitation Wind Pressure Humidity
00:00 +13°C° 0 mm 3 mps 760 mmHg 77%
01:00 +13°C° 0 mm 3 mps 760 mmHg 77%
02:00 +12°C° 0 mm 3 mps 760 mmHg 76%
03:00 +12°C° 0 mm 3 mps 760 mmHg 75%
04:00 +13°C° 0 mm 2 mps 760 mmHg 75%
05:00 +13°C° 0 mm 2 mps 760 mmHg 74%
06:00 +14°C° 0 mm 2 mps 760 mmHg 68%
07:00 +16°C° 0 mm 2 mps 760 mmHg 63%
08:00 +18°C° 0 mm 2 mps 760 mmHg 58%
09:00 +20°C° 0 mm 4 mps 760 mmHg 57%
10:00 +21°C° 0 mm 5 mps 760 mmHg 56%
11:00 +22°C° 0 mm 6 mps 760 mmHg 55%
12:00 +23°C° 0 mm 6 mps 759 mmHg 55%
13:00 +24°C° 0 mm 7 mps 759 mmHg 54%
14:00 +26°C° 0 mm 7 mps 758 mmHg 53%
15:00 +24°C° 0 mm 7 mps 758 mmHg 56%
16:00 +23°C° 0 mm 8 mps 757 mmHg 59%
17:00 +22°C° 0 mm 8 mps 757 mmHg 62%
18:00 +20°C° 0 mm 7 mps 757 mmHg 65%
19:00 +18°C° 0 mm 7 mps 757 mmHg 69%
20:00 +16°C° 0 mm 7 mps 757 mmHg 73%
21:00 +16°C° 0 mm 7 mps 757 mmHg 73%
22:00 +16°C° 0 mm 7 mps 756 mmHg 74%
23:00 +16°C° 0 mm 7 mps 756 mmHg 74%

Tomorrow, 8 May, Saturday

Time Temperature Precipitation Wind Pressure Humidity
00:00 +16°C° 0 mm 6 mps 756 mmHg 78%
01:00 +15°C° 0 mm 5 mps 756 mmHg 82%
02:00 +14°C° 0 mm 4 mps 755 mmHg 86%
03:00 +14°C° 0 mm 4 mps 756 mmHg 85%
04:00 +14°C° 0 mm 3 mps 756 mmHg 84%
05:00 +16°C° 0 mm 3 mps 756 mmHg 84%
06:00 +17°C° 0 mm 4 mps 756 mmHg 78%
07:00 +17°C° 0 mm 6 mps 757 mmHg 72%
08:00 +18°C° 0 mm 8 mps 758 mmHg 67%
09:00 +17°C° 0 mm 8 mps 759 mmHg 67%
10:00 +16°C° 0 mm 9 mps 760 mmHg 67%
11:00 +16°C° 0 mm 10 mps 761 mmHg 67%
12:00 +15°C° 0 mm 9 mps 761 mmHg 63%
13:00 +15°C° 0 mm 9 mps 762 mmHg 60%
14:00 +15°C° 0 mm 9 mps 762 mmHg 56%
15:00 +13°C° 0 mm 8 mps 763 mmHg 58%
16:00 +12°C° 0 mm 7 mps 763 mmHg 60%
17:00 +13°C° 0 mm 6 mps 764 mmHg 61%
18:00 +12°C° 0.1 mm 5 mps 764 mmHg 65%
19:00 +11°C° 0.1 mm 4 mps 765 mmHg 68%
20:00 +11°C° 0.1 mm 3 mps 765 mmHg 71%
21:00 +10°C° 0 mm 3 mps 766 mmHg 74%
22:00 +10°C° 0 mm 3 mps 766 mmHg 76%
23:00 +9°C° 0 mm 3 mps 767 mmHg 79%

Day after tomorrow, 9 May, Sunday

Time Temperature Precipitation Wind Pressure Humidity
00:00 +8°C° 0 mm 4 mps 767 mmHg 81%
01:00 +7°C° 0 mm 4 mps 767 mmHg 83%
02:00 +7°C° 0 mm 5 mps 768 mmHg 85%
03:00 +7°C° 0 mm 5 mps 768 mmHg 82%
04:00 +6°C° 0 mm 4 mps 768 mmHg 80%
05:00 +6°C° 0 mm 4 mps 769 mmHg 77%
06:00 +8°C° 0 mm 4 mps 769 mmHg 69%
07:00 +11°C° 0 mm 4 mps 770 mmHg 61%
08:00 +12°C° 0 mm 4 mps 770 mmHg 52%
09:00 +13°C° 0 mm 4 mps 770 mmHg 49%
10:00 +14°C° 0 mm 3 mps 770 mmHg 46%
11:00 +16°C° 0 mm 3 mps 770 mmHg 43%
12:00 +17°C° 0 mm 3 mps 770 mmHg 43%
13:00 +17°C° 0 mm 3 mps 770 mmHg 43%
14:00 +17°C° 0 mm 3 mps 770 mmHg 43%
15:00 +17°C° 0 mm 4 mps 770 mmHg 46%
16:00 +15°C° 0 mm 4 mps 770 mmHg 49%
17:00 +14°C° 0 mm 5 mps 770 mmHg 52%
18:00 +13°C° 0 mm 4 mps 770 mmHg 58%
19:00 +11°C° 0 mm 4 mps 771 mmHg 65%
20:00 +10°C° 0 mm 4 mps 771 mmHg 71%
21:00 +8°C° 0 mm 4 mps 771 mmHg 72%
22:00 +9°C° 0 mm 3 mps 771 mmHg 73%
23:00 +9°C° 0 mm 3 mps 771 mmHg 74%

10 May, Monday

Time Temperature Precipitation Wind Pressure Humidity
00:00 +8°C° 0 mm 2 mps 771 mmHg 75%
01:00 +9°C° 0 mm 1 mps 770 mmHg 76%
02:00 +9°C° 0 mm 1 mps 770 mmHg 78%
03:00 +9°C° 0 mm 1 mps 770 mmHg 77%
04:00 +8°C° 0 mm 2 mps 770 mmHg 77%
05:00 +8°C° 0 mm 2 mps 770 mmHg 76%
06:00 +10°C° 0 mm 3 mps 770 mmHg 68%
07:00 +12°C° 0 mm 4 mps 770 mmHg 59%
08:00 +14°C° 0 mm 4 mps 771 mmHg 51%
09:00 +15°C° 0 mm 5 mps 771 mmHg 48%
10:00 +15°C° 0 mm 5 mps 771 mmHg 46%
11:00 +16°C° 0 mm 5 mps 771 mmHg 44%
12:00 +17°C° 0 mm 4 mps 770 mmHg 44%
13:00 +17°C° 0 mm 4 mps 770 mmHg 43%
14:00 +18°C° 0 mm 4 mps 770 mmHg 43%
15:00 +17°C° 0 mm 4 mps 769 mmHg 45%
16:00 +17°C° 0 mm 4 mps 769 mmHg 47%
17:00 +16°C° 0 mm 3 mps 769 mmHg 48%
18:00 +14°C° 0 mm 3 mps 769 mmHg 56%
19:00 +12°C° 0 mm 4 mps 769 mmHg 64%
20:00 +11°C° 0 mm 4 mps 769 mmHg 72%
21:00 +10°C° 0 mm 3 mps 769 mmHg 73%
22:00 +10°C° 0 mm 2 mps 769 mmHg 74%
23:00 +10°C° 0 mm 1 mps 769 mmHg 75%

11 May, Tuesday

Time Temperature Precipitation Wind Pressure Humidity
00:00 +10°C° 0 mm 1 mps 768 mmHg 75%
01:00 +10°C° 0 mm 1 mps 768 mmHg 75%
02:00 +10°C° 0 mm 1 mps 768 mmHg 75%
03:00 +9°C° 0 mm 2 mps 768 mmHg 75%
04:00 +8°C° 0 mm 2 mps 768 mmHg 74%
05:00 +8°C° 0 mm 2 mps 768 mmHg 73%
06:00 +10°C° 0 mm 3 mps 768 mmHg 67%
07:00 +12°C° 0 mm 3 mps 768 mmHg 61%
08:00 +14°C° 0 mm 4 mps 768 mmHg 55%
09:00 +15°C° 0 mm 4 mps 768 mmHg 52%
10:00 +17°C° 0 mm 4 mps 767 mmHg 49%
11:00 +18°C° 0 mm 4 mps 767 mmHg 46%
12:00 +19°C° 0 mm 3 mps 767 mmHg 45%
13:00 +19°C° 0 mm 3 mps 766 mmHg 43%
14:00 +20°C° 0 mm 3 mps 766 mmHg 42%
15:00 +19°C° 0 mm 3 mps 766 mmHg 44%
16:00 +18°C° 0 mm 3 mps 765 mmHg 47%
17:00 +18°C° 0 mm 3 mps 765 mmHg 50%
18:00 +16°C° 0 mm 3 mps 765 mmHg 56%
19:00 +14°C° 0 mm 2 mps 765 mmHg 62%
20:00 +13°C° 0 mm 2 mps 765 mmHg 68%
21:00 +12°C° 0 mm 1 mps 764 mmHg 68%
22:00 +12°C° 0 mm 1 mps 764 mmHg 68%
23:00 +11°C° 0 mm 0 mps 764 mmHg 69%

12 May, Wednesday

Time Temperature Precipitation Wind Pressure Humidity
00:00 +12°C° 0 mm 1 mps 764 mmHg 69%
01:00 +12°C° 0 mm 2 mps 763 mmHg 68%
02:00 +12°C° 0 mm 2 mps 763 mmHg 68%
03:00 +12°C° 0 mm 2 mps 762 mmHg 69%
04:00 +12°C° 0 mm 2 mps 762 mmHg 70%
05:00 +11°C° 0 mm 3 mps 762 mmHg 70%
06:00 +13°C° 0 mm 3 mps 762 mmHg 67%
07:00 +16°C° 0 mm 3 mps 762 mmHg 63%
08:00 +18°C° 0 mm 3 mps 762 mmHg 60%
09:00 +19°C° 0 mm 3 mps 761 mmHg 61%
10:00 +20°C° 0 mm 4 mps 761 mmHg 63%
11:00 +20°C° 0 mm 4 mps 761 mmHg 65%
12:00 +20°C° 0 mm 5 mps 761 mmHg 66%
13:00 +20°C° 0 mm 5 mps 761 mmHg 68%
14:00 +20°C° 0 mm 6 mps 761 mmHg 69%
15:00 +19°C° 0 mm 6 mps 760 mmHg 69%
16:00 +17°C° 0 mm 5 mps 760 mmHg 69%
17:00 +16°C° 0 mm 5 mps 759 mmHg 69%
18:00 +15°C° 0 mm 5 mps 759 mmHg 76%
19:00 +14°C° 0 mm 5 mps 759 mmHg 82%
20:00 +12°C° 0 mm 5 mps 759 mmHg 88%
21:00 +12°C° 0 mm 4 mps 758 mmHg 90%
22:00 +12°C° 0 mm 4 mps 758 mmHg 92%
23:00 +12°C° 0 mm 4 mps 758 mmHg 94%
Show more

We Need Your Consent

Meteoprog and our Service Providers may store and access personal data such as cookies, device identifiers or other similar technologies on your device and process such data to personalise content and ads, as well as provide social media features and to analyse the traffic.

  • Store and/or access information on your device

    Cookies, device identifiers or other information can be stored or accessed on your device for the purposes indicated above.

  • Personalised ads and content, ad and content measurement, audience insights, and products development

    Ads and content can be personalised based on a profile. More data can be added to better personalise ads and content. Ad and content performance can be measured. Insights about the audience who saw the ads and content can be derived. Such data can be used to develop or improve user’s experience, systems and software.

By clicking ‘I Agree’ you will allow the use of indicated cookies, device identifiers, web beacons or other similar technologies. Your settings can be changed in the browser on your device.

For certain purposes, legitimate interests may be relied on, rather than consent. You can read more about this in our Privacy and Cookie Policy.